CW2597 Weather Reports


Display with metric or nautical units.
time (UTC)temp
F
wind
direction
speed
MPH
gust
MPH
rain 1hr
in
rain 24hr
in
rain mn
in
humidity
%
barometer
mb
20260510144511 63 4 0.0 0.0 0.00 0.00 0.00 65 1009.5
20260510144205 63 285 0.0 1.0 0.00 0.00 0.00 65 1010.5
20260510143705 64 3 0.0 0.0 0.00 0.00 0.00 64 1010.6
20260510143511 64 340 0.0 1.0 0.00 0.00 0.00 65 1009.5
20260510143204 64 332 0.0 1.0 0.00 0.00 0.00 64 1010.6
20260510142704 65 291 0.0 1.0 0.00 0.00 0.00 63 1010.7
20260510142511 65 29 0.0 0.0 0.00 0.00 0.00 64 1009.7
20260510141511 65 297 0.0 0.0 0.00 0.00 0.00 65 1009.7
20260510141204 65 319 0.0 1.0 0.00 0.00 0.00 65 1010.8
20260510140704 65 324 0.0 5.0 0.00 0.00 0.00 63 1010.8
20260510140511 65 340 0.0 5.0 0.00 0.00 0.00 64 1009.9
20260510135704 65 343 1.0 8.0 0.00 0.00 0.00 64 1010.9
20260510135511 65 355 0.0 5.0 0.00 0.00 0.00 65 1009.9
20260510135204 64 307 0.0 3.0 0.00 0.00 0.00 65 1011.0
20260510134705 65 317 1.0 3.0 0.00 0.00 0.00 65 1010.9
20260510134511 65 38 0.0 3.0 0.00 0.00 0.00 67 1009.9
20260510134205 65 320 0.0 0.0 0.00 0.00 0.00 64 1011.0
20260510133704 66 353 0.0 3.0 0.00 0.00 0.00 65 1011.2
20260510133511 65 271 0.0 2.0 0.00 0.00 0.00 63 1010.2
20260510133204 66 0 0.0 3.0 0.00 0.00 0.00 65 1011.2
20260510132511 66 316 0.0 1.0 0.00 0.00 0.00 64 1010.3
20260510131705 65 303 0.0 0.0 0.00 0.00 0.00 64 1011.3
20260510131511 65 13 0.0 0.0 0.00 0.00 0.00 63 1010.2
20260510131205 65 346 0.0 1.0 0.00 0.00 0.00 65 1011.2
20260510130704 65 343 0.0 0.0 0.00 0.00 0.00 63 1011.3
20260510130205 66 310 0.0 0.0 0.00 0.00 0.00 62 1011.4
20260510125704 66 329 0.0 2.0 0.00 0.00 0.00 64 1011.4
20260510125512 66 290 0.0 2.0 0.00 0.00 0.00 64 1010.4
20260510125204 65 289 1.0 7.0 0.00 0.00 0.00 65 1011.4
20260510124704 65 326 0.0 3.0 0.00 0.00 0.00 63 1011.5
20260510124511 65 259 1.0 3.0 0.00 0.00 0.00 63 1010.5
20260510124205 65 316 1.0 3.0 0.00 0.00 0.00 62 1011.6
20260510123511 65 279 0.0 0.0 0.00 0.00 0.00 62 1010.5
20260510123204 66 5 0.0 0.0 0.00 0.00 0.00 64 1011.6
20260510122704 66 335 0.0 0.0 0.00 0.00 0.00 62 1011.6
20260510121205 67 304 0.0 0.0 0.00 0.00 0.00 60 1011.8
20260510120704 67 21 0.0 0.0 0.00 0.00 0.00 61 1011.8
20260510120511 67 27 0.0 0.0 0.00 0.00 0.00 61 1010.7
20260510120204 66 4 0.0 0.0 0.00 0.00 0.00 64 1011.8
20260510115705 65 5 0.0 0.0 0.00 0.00 0.00 63 1012.0
20260510115511 65 357 0.0 0.0 0.00 0.00 0.00 64 1010.9
20260510115204 64 14 0.0 0.0 0.00 0.00 0.00 64 1012.0
20260510114204 64 357 0.0 0.0 0.00 0.00 0.00 65 1012.1
20260510113704 64 5 0.0 0.0 0.00 0.00 0.00 66 1012.1
20260510113513 64 5 0.0 0.0 0.00 0.00 0.00 65 1011.1
20260510113204 64 19 0.0 0.0 0.00 0.00 0.00 66 1012.1
20260510112704 64 283 0.0 0.0 0.00 0.00 0.00 67 1012.2
20260510112513 64 32 0.0 0.0 0.00 0.00 0.00 67 1011.2
20260510112204 64 56 0.0 0.0 0.00 0.00 0.00 67 1012.2
20260510111513 64 12 0.0 0.0 0.00 0.00 0.00 64 1011.2
20260510111204 65 49 0.0 0.0 0.00 0.00 0.00 63 1012.3
20260510110513 65 24 0.0 0.0 0.00 0.00 0.00 64 1011.2
20260510105704 65 254 0.0 0.0 0.00 0.00 0.00 67 1012.3
20260510105513 65 291 0.0 0.0 0.00 0.00 0.00 67 1011.3
20260510105205 65 338 0.0 0.0 0.00 0.00 0.00 67 1012.4
20260510104204 64 302 0.0 0.0 0.00 0.00 0.00 67 1012.4
20260510103704 64 353 0.0 1.0 0.00 0.00 0.00 68 1012.5
20260510103513 64 360 0.0 1.0 0.00 0.00 0.00 70 1011.4
20260510103204 64 312 0.0 0.0 0.00 0.00 0.00 68 1012.5
20260510101704 64 289 0.0 0.0 0.00 0.00 0.00 70 1012.7
20260510101513 64 357 0.0 0.0 0.00 0.00 0.00 68 1011.7
20260510101205 63 11 0.0 0.0 0.00 0.00 0.00 69 1012.7
20260510095704 64 3 0.0 0.0 0.00 0.00 0.00 69 1012.8
20260510095513 64 356 0.0 0.0 0.00 0.00 0.00 68 1011.8
20260510095204 64 4 0.0 0.0 0.00 0.00 0.00 68 1012.9
20260510094704 63 334 0.0 0.0 0.00 0.00 0.00 69 1012.9
20260510094204 63 2 0.0 0.0 0.00 0.00 0.00 70 1012.9
20260510093704 63 348 0.0 0.0 0.00 0.00 0.00 69 1012.9
20260510093513 62 300 0.0 0.0 0.00 0.00 0.00 70 1011.9
20260510092704 62 319 0.0 0.0 0.00 0.00 0.00 71 1013.0
20260510092513 62 350 0.0 0.0 0.00 0.00 0.00 71 1012.0
20260510092204 62 349 0.0 0.0 0.00 0.00 0.00 71 1013.1
20260510091704 61 15 0.0 0.0 0.00 0.00 0.00 71 1013.1
20260510091513 61 9 0.0 0.0 0.00 0.00 0.00 72 1012.1
20260510091204 61 359 0.0 0.0 0.00 0.00 0.00 72 1013.1
20260510090704 61 23 0.0 0.0 0.00 0.00 0.00 73 1013.0
20260510090513 61 90 0.0 0.0 0.00 0.00 0.00 74 1012.0
20260510085704 61 355 0.0 0.0 0.00 0.00 0.00 72 1013.0
20260510085513 61 15 0.0 0.0 0.00 0.00 0.00 72 1012.0
20260510084704 60 354 0.0 0.0 0.00 0.00 0.00 74 1013.0
20260510084513 60 315 0.0 0.0 0.00 0.00 0.00 74 1012.0
20260510084204 60 358 0.0 0.0 0.00 0.00 0.00 74 1013.1
20260510083512 60 340 0.0 0.0 0.00 0.00 0.00 72 1012.1
20260510083204 60 297 0.0 0.0 0.00 0.00 0.00 74 1013.1
20260510082704 60 283 0.0 0.0 0.00 0.00 0.00 75 1013.1
20260510082513 60 315 0.0 0.0 0.00 0.00 0.00 74 1012.1
20260510082204 60 353 0.0 0.0 0.00 0.00 0.00 73 1013.1
20260510081704 60 335 0.0 0.0 0.00 0.00 0.00 74 1013.1
20260510081513 60 25 0.0 0.0 0.00 0.00 0.00 75 1012.1
20260510081204 59 279 0.0 0.0 0.00 0.00 0.00 75 1013.1
20260510080705 59 279 0.0 0.0 0.00 0.00 0.00 75 1013.1
20260510080513 59 279 0.0 0.0 0.00 0.00 0.00 76 1012.1
20260510080204 59 279 0.0 0.0 0.00 0.00 0.00 76 1013.2
20260510075513 58 279 0.0 0.0 0.00 0.00 0.00 76 1012.2
20260510075204 58 279 0.0 0.0 0.00 0.00 0.00 77 1013.3
20260510074704 58 279 0.0 0.0 0.00 0.00 0.00 76 1013.3
20260510074204 58 314 0.0 0.0 0.00 0.00 0.00 77 1013.3
20260510073513 57 289 0.0 0.0 0.00 0.00 0.00 77 1012.3
20260510073204 57 9 0.0 0.0 0.00 0.00 0.00 77 1013.4
20260510072512 57 9 0.0 0.0 0.00 0.00 0.00 77 1012.4
20260510072204 57 9 0.0 0.0 0.00 0.00 0.00 78 1013.4
20260510071704 57 9 0.0 0.0 0.00 0.00 0.00 77 1013.5
20260510071204 57 9 0.0 0.0 0.00 0.00 0.00 78 1013.6
20260510070704 57 9 0.0 0.0 0.00 0.00 0.00 80 1013.6
20260510070513 56 9 0.0 0.0 0.00 0.00 0.00 80 1012.6
20260510070204 56 9 0.0 0.0 0.00 0.00 0.00 79 1013.6
20260510065703 55 9 0.0 0.0 0.00 0.00 0.00 79 1013.6
20260510065204 55 9 0.0 0.0 0.00 0.00 0.00 80 1013.6
20260510064703 55 9 0.0 0.0 0.00 0.00 0.00 80 1013.6
20260510064512 55 9 0.0 0.0 0.00 0.00 0.00 80 1012.6
20260510064204 54 9 0.0 0.0 0.00 0.00 0.00 81 1013.5
20260510063704 54 7 0.0 0.0 0.00 0.00 0.00 81 1013.5
20260510063513 54 8 0.0 0.0 0.00 0.00 0.00 81 1012.5
20260510062704 54 66 0.0 0.0 0.00 0.00 0.00 82 1013.5
20260510062512 54 66 0.0 0.0 0.00 0.00 0.00 82 1012.5
20260510062204 53 66 0.0 0.0 0.00 0.00 0.00 83 1013.5
20260510061705 53 66 0.0 0.0 0.00 0.00 0.00 83 1013.6
20260510061513 53 66 0.0 0.0 0.00 0.00 0.00 83 1012.6
20260510061204 53 66 0.0 0.0 0.00 0.00 0.00 83 1013.6
20260510060704 53 66 0.0 0.0 0.00 0.00 0.00 83 1013.7
20260510060512 53 66 0.0 0.0 0.00 0.00 0.00 84 1012.6
20260510060204 52 66 0.0 0.0 0.00 0.00 0.00 84 1013.7
20260510055704 52 66 0.0 0.0 0.00 0.00 0.00 84 1013.7
20260510055513 52 66 0.0 0.0 0.00 0.00 0.00 85 1012.7
20260510055204 52 66 0.0 0.0 0.00 0.00 0.00 86 1013.7
20260510054704 51 66 0.0 0.0 0.00 0.00 0.00 87 1013.8
20260510054513 51 66 0.0 0.0 0.00 0.00 0.00 87 1012.7
20260510054204 51 66 0.0 0.0 0.00 0.00 0.00 88 1013.8
20260510053704 51 66 0.0 0.0 0.00 0.00 0.00 88 1013.8
20260510053513 50 66 0.0 0.0 0.00 0.00 0.00 88 1012.9
20260510053204 50 66 0.0 0.0 0.00 0.00 0.00 88 1013.9
20260510052704 50 66 0.0 0.0 0.00 0.00 0.00 89 1013.8
20260510052513 50 66 0.0 0.0 0.00 0.00 0.00 89 1012.8
20260510051704 50 66 0.0 0.0 0.00 0.00 0.00 89 1013.8
20260510051512 50 66 0.0 0.0 0.00 0.00 0.00 90 1012.7
20260510051203 49 66 0.0 0.0 0.00 0.00 0.00 90 1013.8
20260510050706 49 66 0.0 0.0 0.00 0.00 0.00 91 1013.8
20260510045706 48 66 0.0 0.0 0.00 0.00 0.00 91 1013.8
20260510045512 48 66 0.0 0.0 0.00 0.00 0.00 91 1012.7
20260510044706 47 66 0.0 0.0 0.00 0.00 0.00 90 1013.8
20260510044513 47 66 0.0 0.0 0.00 0.00 0.00 90 1012.7
20260510044206 46 66 0.0 0.0 0.00 0.00 0.00 90 1013.7
20260510043706 46 66 0.0 0.0 0.00 0.00 0.00 90 1013.8
20260510043512 46 66 0.0 0.0 0.00 0.00 0.00 90 1012.6
20260510043206 46 66 0.0 0.0 0.00 0.00 0.00 90 1013.8
20260510042706 46 66 0.0 0.0 0.00 0.00 0.00 89 1013.8
20260510042512 46 66 0.0 0.0 0.00 0.00 0.00 89 1012.6
20260510042206 46 66 0.0 0.0 0.00 0.00 0.00 89 1013.8
20260510041706 46 66 0.0 0.0 0.00 0.00 0.00 89 1013.8
20260510041513 46 66 0.0 0.0 0.00 0.00 0.00 89 1012.7
20260510041205 46 66 0.0 0.0 0.00 0.00 0.00 89 1013.8
20260510040705 46 66 0.0 0.0 0.00 0.00 0.00 88 1013.8
20260510040513 46 66 0.0 0.0 0.00 0.00 0.00 88 1012.8
20260510040205 46 66 0.0 0.0 0.00 0.00 0.00 88 1014.0
20260510035706 46 66 0.0 0.0 0.00 0.00 0.00 88 1014.0
20260510035513 46 66 0.0 0.0 0.00 0.00 0.00 88 1012.8
20260510035205 46 66 0.0 0.0 0.00 0.00 0.00 88 1013.9
20260510034706 46 66 0.0 0.0 0.00 0.00 0.00 88 1014.0
20260510034513 46 66 0.0 0.0 0.00 0.00 0.00 88 1012.9
20260510034205 46 66 0.0 0.0 0.00 0.00 0.00 87 1014.1
20260510033706 46 66 0.0 0.0 0.00 0.00 0.00 87 1014.0
20260510033206 47 66 0.0 0.0 0.00 0.00 0.00 87 1014.0
20260510032706 47 66 0.0 0.0 0.00 0.00 0.00 87 1014.1
20260510032513 47 66 0.0 0.0 0.00 0.00 0.00 87 1013.1
20260510031706 47 66 0.0 0.0 0.00 0.00 0.00 86 1014.2
20260510031512 47 66 0.0 0.0 0.00 0.00 0.00 86 1013.1
20260510030513 48 66 0.0 0.0 0.00 0.00 0.00 86 1013.1
20260510025705 49 66 0.0 0.0 0.00 0.00 0.00 86 1014.1
20260510025512 49 66 0.0 0.0 0.00 0.00 0.00 86 1013.1
20260510025205 49 66 0.0 0.0 0.00 0.00 0.00 86 1014.1
20260510024705 49 66 0.0 0.0 0.00 0.00 0.00 86 1014.1
20260510024513 49 66 0.0 0.0 0.00 0.00 0.00 86 1013.1
20260510024205 50 66 0.0 0.0 0.00 0.00 0.00 86 1014.1
20260510023705 50 66 0.0 0.0 0.00 0.00 0.00 86 1014.2
20260510023513 50 66 0.0 0.0 0.00 0.00 0.00 86 1013.2
20260510023205 50 66 0.0 0.0 0.00 0.00 0.00 86 1014.2
20260510022706 50 66 0.0 0.0 0.00 0.00 0.00 86 1014.2
20260510022512 50 66 0.0 0.0 0.00 0.00 0.00 86 1013.2
20260510022206 50 66 0.0 0.0 0.00 0.00 0.00 85 1014.3
20260510021705 50 66 0.0 0.0 0.00 0.00 0.00 85 1014.3
20260510021511 50 66 0.0 0.0 0.00 0.00 0.00 85 1013.2
20260510021205 50 66 0.0 0.0 0.00 0.00 0.00 85 1014.4
20260510020705 51 66 0.0 0.0 0.00 0.00 0.00 85 1014.4
20260510020513 51 66 0.0 0.0 0.00 0.00 0.00 85 1013.3
20260510020205 51 66 0.0 0.0 0.00 0.00 0.00 85 1014.4
20260510015706 51 66 0.0 0.0 0.00 0.00 0.00 84 1014.4
20260510015513 51 66 0.0 0.0 0.00 0.00 0.00 84 1013.4
20260510014706 51 66 0.0 0.0 0.00 0.00 0.00 84 1014.4
20260510014513 51 66 0.0 0.0 0.00 0.00 0.00 84 1013.4
20260510013705 51 66 0.0 0.0 0.00 0.00 0.00 84 1014.4
20260510013513 51 66 0.0 0.0 0.00 0.00 0.00 84 1013.5
20260510013205 51 66 0.0 0.0 0.00 0.00 0.00 83 1014.5
20260510012705 51 66 0.0 0.0 0.00 0.00 0.00 83 1014.5
20260510012513 51 66 0.0 0.0 0.00 0.00 0.00 83 1013.4
20260510012205 52 66 0.0 0.0 0.00 0.00 0.00 83 1014.5
20260510011705 52 66 0.0 0.0 0.00 0.00 0.00 83 1014.5
20260510011513 52 66 0.0 0.0 0.00 0.00 0.00 83 1013.5
20260510011205 52 66 0.0 0.0 0.00 0.00 0.00 82 1014.5
20260510010706 52 66 0.0 0.0 0.00 0.00 0.00 82 1014.5
20260510010205 52 66 0.0 0.0 0.00 0.00 0.00 82 1014.6
20260510005512 53 66 0.0 0.0 0.00 0.00 0.00 81 1013.6
20260510004706 53 65 0.0 0.0 0.00 0.00 0.00 81 1014.7
20260510004513 53 65 0.0 0.0 0.00 0.00 0.00 81 1013.8
20260510004205 53 65 0.0 0.0 0.00 0.00 0.00 80 1014.8
20260510003705 53 65 0.0 0.0 0.00 0.00 0.00 80 1014.9
20260510003205 53 65 0.0 0.0 0.00 0.00 0.00 79 1015.0
20260510002705 54 65 0.0 0.0 0.00 0.00 0.00 79 1015.0
20260510002512 54 65 0.0 0.0 0.00 0.00 0.00 79 1014.1
20260510002205 54 65 0.0 0.0 0.00 0.00 0.00 79 1015.1
20260510001706 54 58 0.0 0.0 0.00 0.00 0.00 79 1015.0
20260510001205 54 76 0.0 0.0 0.00 0.00 0.00 79 1015.1
20260510000705 54 64 0.0 0.0 0.00 0.00 0.00 79 1015.2
20260510000511 54 61 0.0 0.0 0.00 0.00 0.00 79 1014.1
20260510000205 54 76 0.0 0.0 0.00 0.00 0.00 78 1015.2
20260509235705 54 94 0.0 0.0 0.00 0.00 0.00 78 1015.3
20260509235206 54 94 0.0 0.0 0.00 0.00 0.00 78 1015.4
20260509233512 55 62 0.0 0.0 0.00 0.00 0.00 77 1014.5
20260509233206 55 89 0.0 0.0 0.00 0.00 0.00 77 1015.5
20260509232512 55 48 0.0 0.0 0.00 0.00 0.00 77 1014.5
20260509232205 55 77 0.0 0.0 0.00 0.00 0.00 77 1015.5
20260509231705 55 83 0.0 0.0 0.00 0.00 0.00 76 1015.6
20260509231513 55 81 0.0 0.0 0.00 0.00 0.00 76 1014.5
20260509231206 55 72 0.0 0.0 0.00 0.00 0.00 76 1015.7
20260509230705 55 72 0.0 0.0 0.00 0.00 0.00 76 1015.7
20260509230205 55 83 0.0 0.0 0.00 0.00 0.00 76 1015.6
20260509225705 55 89 0.0 0.0 0.00 0.00 0.00 76 1015.7
20260509225512 56 89 0.0 0.0 0.00 0.00 0.00 76 1014.6
20260509224705 56 96 0.0 0.0 0.00 0.00 0.00 75 1015.7
20260509224512 56 94 0.0 0.0 0.00 0.00 0.00 75 1014.7
20260509223705 56 87 0.0 0.0 0.00 0.00 0.00 75 1015.8
20260509223512 56 130 0.0 0.0 0.00 0.00 0.00 75 1014.7
20260509223205 56 90 0.0 0.0 0.00 0.00 0.00 75 1015.8
20260509222705 56 82 0.0 0.0 0.00 0.00 0.00 75 1015.9
20260509222205 56 69 0.0 0.0 0.00 0.00 0.00 75 1015.9
20260509221205 56 77 0.0 0.0 0.00 0.00 0.00 74 1016.1
20260509220205 57 90 0.0 0.0 0.00 0.00 0.00 73 1016.1
20260509215705 57 65 0.0 0.0 0.00 0.00 0.00 73 1016.0
20260509215512 57 88 0.0 0.0 0.00 0.00 0.00 73 1014.9
20260509215206 57 89 0.0 1.0 0.00 0.00 0.00 73 1016.0
20260509214705 57 75 0.0 0.0 0.00 0.00 0.00 73 1016.1
20260509214512 57 87 0.0 0.0 0.00 0.00 0.00 72 1015.0
20260509214205 57 75 0.0 0.0 0.00 0.00 0.00 73 1016.1
20260509213705 57 80 0.0 0.0 0.00 0.00 0.00 73 1016.2
20260509213512 57 77 0.0 0.0 0.00 0.00 0.00 73 1015.2
20260509213205 57 83 0.0 0.0 0.00 0.00 0.00 72 1016.4
20260509212705 58 76 0.0 0.0 0.00 0.00 0.00 72 1016.5
20260509212512 58 63 0.0 0.0 0.00 0.00 0.00 72 1015.4
20260509212205 58 81 0.0 0.0 0.00 0.00 0.00 72 1016.5
20260509211705 58 96 0.0 0.0 0.00 0.00 0.00 72 1016.4
20260509211512 58 77 0.0 0.0 0.00 0.00 0.00 72 1015.3
20260509211205 58 77 0.0 0.0 0.00 0.00 0.00 71 1016.4
20260509210705 58 86 0.0 0.0 0.00 0.00 0.00 71 1016.4
20260509210512 58 82 0.0 0.0 0.00 0.00 0.00 71 1015.3
20260509210205 58 95 0.0 0.0 0.00 0.00 0.00 71 1016.4
20260509205705 58 92 0.0 0.0 0.00 0.00 0.00 71 1016.5
20260509204705 59 101 0.0 0.0 0.00 0.00 0.00 69 1016.5
20260509204512 59 89 0.0 0.0 0.00 0.00 0.00 70 1015.4
20260509204205 59 88 0.0 0.0 0.00 0.00 0.00 69 1016.4
20260509203705 59 84 0.0 7.0 0.00 0.00 0.00 69 1016.4
20260509203512 59 92 0.0 7.0 0.00 0.00 0.00 69 1015.3
20260509203205 59 70 0.0 2.0 0.00 0.00 0.00 68 1016.3
20260509202705 59 76 0.0 0.0 0.00 0.00 0.00 68 1016.4
20260509202512 59 64 0.0 0.0 0.00 0.00 0.00 68 1015.4
20260509202205 59 82 0.0 0.0 0.00 0.00 0.00 67 1016.4
20260509201704 60 91 0.0 0.0 0.00 0.00 0.00 67 1016.4
20260509201512 60 93 0.0 0.0 0.00 0.00 0.00 67 1015.3
20260509201205 60 90 0.0 0.0 0.00 0.00 0.00 67 1016.3
20260509200705 60 90 0.0 0.0 0.00 0.00 0.00 67 1016.3
20260509200512 60 94 0.0 0.0 0.00 0.00 0.00 67 1015.3
20260509195705 60 96 0.0 7.0 0.00 0.00 0.00 66 1016.3
20260509195512 60 103 0.0 7.0 0.00 0.00 0.00 66 1015.2
20260509195205 60 92 0.0 1.0 0.00 0.00 0.00 66 1016.2
20260509194705 60 91 0.0 3.0 0.00 0.00 0.00 66 1016.3
20260509194512 60 60 1.0 8.0 0.00 0.00 0.00 66 1015.2
20260509194205 60 91 1.0 8.0 0.00 0.00 0.00 66 1016.3
20260509193705 60 95 0.0 2.0 0.00 0.00 0.00 66 1016.4
20260509193512 60 93 0.0 2.0 0.00 0.00 0.00 66 1015.3
20260509193205 60 83 0.0 1.0 0.00 0.00 0.00 66 1016.3
20260509192705 61 74 0.0 0.0 0.00 0.00 0.00 65 1016.3
20260509192512 61 87 0.0 0.0 0.00 0.00 0.00 65 1015.2
20260509191705 61 88 0.0 2.0 0.00 0.00 0.00 65 1016.3
20260509190705 61 91 0.0 0.0 0.00 0.00 0.00 65 1016.3
20260509190512 61 82 0.0 0.0 0.00 0.00 0.00 65 1015.2
20260509190205 61 76 0.0 0.0 0.00 0.00 0.00 65 1016.3
20260509185705 61 88 0.0 0.0 0.00 0.00 0.00 65 1016.3
20260509185512 61 81 0.0 0.0 0.00 0.00 0.00 64 1015.3
20260509184705 61 77 0.0 0.0 0.00 0.00 0.00 64 1016.3
20260509184512 61 73 0.0 0.0 0.00 0.00 0.00 64 1015.2
20260509184205 61 65 0.0 0.0 0.00 0.00 0.00 64 1016.3
20260509183705 61 77 0.0 0.0 0.00 0.00 0.00 64 1016.2
20260509183513 62 83 0.0 0.0 0.00 0.00 0.00 64 1015.2
20260509183204 62 102 0.0 2.0 0.00 0.00 0.00 64 1016.2
20260509182705 62 92 0.0 2.0 0.00 0.00 0.00 64 1016.2
20260509182512 62 82 0.0 8.0 0.00 0.00 0.00 63 1015.2
20260509182204 62 96 1.0 8.0 0.00 0.00 0.00 63 1016.2
20260509181512 62 123 0.0 1.0 0.00 0.00 0.00 64 1015.1
20260509180705 62 63 0.0 6.0 0.00 0.00 0.00 63 1016.1
20260509180512 62 79 0.0 6.0 0.00 0.00 0.00 63 1015.1
20260509180204 62 68 0.0 2.0 0.00 0.00 0.00 63 1016.1
20260509175705 62 77 0.0 2.0 0.00 0.00 0.00 63 1016.0
20260509175205 62 92 1.0 7.0 0.00 0.00 0.00 62 1016.0
20260509174705 62 98 0.0 1.0 0.00 0.00 0.00 62 1015.9
20260509174512 62 68 0.0 1.0 0.00 0.00 0.00 62 1014.9
20260509173705 63 77 0.0 2.0 0.00 0.00 0.00 62 1015.9
20260509173512 62 93 0.0 2.0 0.00 0.00 0.00 62 1014.8
20260509173205 63 71 0.0 0.0 0.00 0.00 0.00 62 1015.9
20260509172512 63 99 0.0 0.0 0.00 0.00 0.00 63 1014.8
20260509172205 63 79 0.0 0.0 0.00 0.00 0.00 63 1015.8
20260509171705 63 84 0.0 3.0 0.00 0.00 0.00 62 1015.8
20260509171511 63 86 0.0 3.0 0.00 0.00 0.00 62 1014.8
20260509171205 63 59 0.0 8.0 0.00 0.00 0.00 62 1015.8
20260509170705 63 81 0.0 1.0 0.00 0.00 0.00 63 1015.8
20260509170512 63 110 0.0 4.0 0.00 0.00 0.00 62 1014.8
20260509170204 63 78 0.0 9.0 0.00 0.00 0.00 63 1015.8
20260509165704 63 81 0.0 3.0 0.00 0.00 0.00 62 1015.8
20260509165511 63 93 0.0 3.0 0.00 0.00 0.00 62 1014.8
20260509164705 63 86 0.0 2.0 0.00 0.00 0.00 62 1015.9
20260509164512 62 70 0.0 7.0 0.00 0.00 0.00 62 1014.8
20260509164205 63 82 0.0 7.0 0.00 0.00 0.00 62 1016.0
20260509163705 63 80 1.0 7.0 0.00 0.00 0.00 61 1016.0
20260509163512 63 90 0.0 1.0 0.00 0.00 0.00 61 1015.0
20260509163204 63 88 0.0 3.0 0.00 0.00 0.00 61 1016.1
20260509162512 63 73 0.0 4.0 0.00 0.00 0.00 61 1015.0
20260509162205 63 58 1.0 3.0 0.00 0.00 0.00 61 1016.0
20260509161705 63 59 0.0 10.0 0.00 0.00 0.00 61 1016.0
20260509161512 63 85 1.0 10.0 0.00 0.00 0.00 61 1015.0
20260509161205 63 78 0.0 12.0 0.00 0.00 0.00 61 1016.1
20260509160705 63 70 0.0 3.0 0.00 0.00 0.00 60 1016.1
20260509160205 63 78 1.0 8.0 0.00 0.00 0.00 60 1016.2
20260509155705 63 71 0.0 1.0 0.00 0.00 0.00 60 1016.2
20260509155511 63 51 0.0 2.0 0.00 0.00 0.00 60 1015.2
20260509155204 63 70 0.0 1.0 0.00 0.00 0.00 61 1016.2
20260509154705 63 68 0.0 2.0 0.00 0.00 0.00 61 1016.3
20260509154512 63 96 0.0 1.0 0.00 0.00 0.00 61 1015.3
20260509154205 63 82 1.0 6.0 0.00 0.00 0.00 61 1016.4
20260509153705 63 93 1.0 8.0 0.00 0.00 0.00 61 1016.5
20260509153512 63 124 1.0 8.0 0.00 0.00 0.00 61 1015.5
20260509153205 63 71 1.0 5.0 0.00 0.00 0.00 61 1016.6
20260509152704 63 64 0.0 2.0 0.00 0.00 0.00 62 1016.6
20260509152512 63 69 0.0 2.0 0.00 0.00 0.00 61 1015.5
20260509152204 63 80 0.0 5.0 0.00 0.00 0.00 61 1016.6
20260509151704 63 84 1.0 8.0 0.00 0.00 0.00 60 1016.6
20260509151512 63 72 0.0 8.0 0.00 0.00 0.00 60 1015.6
20260509151204 64 86 0.0 8.0 0.00 0.00 0.00 61 1016.7
20260509150704 64 83 0.0 7.0 0.00 0.00 0.00 60 1016.7
20260509150512 64 62 0.0 7.0 0.00 0.00 0.00 59 1015.6
20260509150204 64 77 0.0 3.0 0.00 0.00 0.00 60 1016.7
20260509145704 63 71 0.0 9.0 0.00 0.00 0.00 61 1016.7
20260509145204 63 71 0.0 12.0 0.00 0.00 0.00 62 1016.7